Location: Runa
(38.1429°N, 80.8510°W)
Time: 04:15:42
(UTC+00:00)

Hubble Space Telescope - Pass Details

Date: 25 April 2026
Orbit: 473 x 476 km, 28.5° (Epoch: 11 May)

Event Time Altitude Azimuth Distance (km) Brightness Sun altitude
Rises 01:47:25 0° 236° (SW) 2,506 4.5 -18.4°
Reaches altitude 10° 01:50:09 10° 216° (SW) 1,630 3.2 -18.8°
Enters shadow 01:51:12 14° 201° (SSW) 1,393 2.7 -19.0°
